Tracking 30990 objects as of 8-Jul-2025
HD Live streaming from Space Station
objects crossing your sky now

STARLINK-3891

Track STARLINK-3891 now!
10-day predictions
STARLINK-3891 is classified as:


NORAD ID: 52650
Int'l Code: 2022-052BE
Perigee: 546.1 km
Apogee: 547.7 km
Inclination: 53.2 °
Period: 95.4 minutes
Semi major axis: 6917 km
RCS: Unknown
Launch date: May 14, 2022
Source: United States (US)
Launch site: AIR FORCE EASTERN TEST RANGE (AFETR)
Your satellite tracking list
Your tracking list is empty




NASA's NSSDC Master Catalog

Two Line Element Set (TLE):
1 52650U 22052BE  25188.50775447 -.00000224  00000-0  40304-5 0  9997
2 52650  53.2173 269.8898 0001191  82.9715 277.1413 15.08837317174263
Source of the keplerian elements: AFSPC